When you browse on this site, cookies collect data to enhance your experience and personalize the content and advertising you see.
Visit our Privacy Policy to learn more. By continuing to use the site, you agree to this use of cookies and data.
  • In Schweiz
  • Länderverzeichnis
  • Für 7 Tage
  • Wassertemperatur
  • Wetterkarte
  • Widgets
  • user-avatar
    Anmelden

    Stündliche Wetter Annaba

    Heute, 18 Oktober, Freitag

    Zeit Temperatur Niederschläge Wind Luftdruck Luftfeuchtigkeit
    00:00 +20°C° 0 mm 0 m/S 762 mmHg 67%
    01:00 +20°C° 0 mm 0 m/S 762 mmHg 67%
    02:00 +20°C° 0 mm 0 m/S 761 mmHg 67%
    03:00 +20°C° 0 mm 0 m/S 761 mmHg 68%
    04:00 +19°C° 0 mm 0 m/S 761 mmHg 68%
    05:00 +19°C° 0 mm 0 m/S 761 mmHg 69%
    06:00 +19°C° 0 mm 0 m/S 761 mmHg 69%
    07:00 +19°C° 0 mm 0 m/S 761 mmHg 70%
    08:00 +21°C° 0 mm 0 m/S 761 mmHg 64%
    09:00 +23°C° 0 mm 0 m/S 761 mmHg 58%
    10:00 +24°C° 0 mm 0 m/S 762 mmHg 52%
    11:00 +27°C° 0 mm 1 m/S 761 mmHg 51%
    12:00 +28°C° 0 mm 2 m/S 761 mmHg 50%
    13:00 +28°C° 0 mm 3 m/S 761 mmHg 49%
    14:00 +28°C° 0 mm 3 m/S 761 mmHg 52%
    15:00 +27°C° 0 mm 3 m/S 760 mmHg 55%
    16:00 +27°C° 0 mm 3 m/S 760 mmHg 57%
    17:00 +25°C° 0 mm 2 m/S 760 mmHg 62%
    18:00 +24°C° 0 mm 2 m/S 760 mmHg 68%
    19:00 +23°C° 0 mm 1 m/S 760 mmHg 73%
    20:00 +23°C° 0 mm 1 m/S 761 mmHg 74%
    21:00 +22°C° 0 mm 1 m/S 761 mmHg 75%
    22:00 +22°C° 0 mm 1 m/S 761 mmHg 76%
    23:00 +22°C° 0 mm 1 m/S 761 mmHg 77%

    Morgen, 19 Oktober, Samstag

    Zeit Temperatur Niederschläge Wind Luftdruck Luftfeuchtigkeit
    00:00 +22°C° 0 mm 1 m/S 761 mmHg 77%
    01:00 +22°C° 0 mm 1 m/S 761 mmHg 78%
    02:00 +20°C° 0 mm 2 m/S 760 mmHg 77%
    03:00 +20°C° 0 mm 2 m/S 760 mmHg 76%
    04:00 +20°C° 0 mm 2 m/S 759 mmHg 75%
    05:00 +20°C° 0 mm 2 m/S 759 mmHg 73%
    06:00 +20°C° 0 mm 2 m/S 759 mmHg 72%
    07:00 +21°C° 0 mm 2 m/S 759 mmHg 71%
    08:00 +24°C° 0 mm 2 m/S 759 mmHg 63%
    09:00 +26°C° 0 mm 2 m/S 759 mmHg 55%
    10:00 +29°C° 0 mm 2 m/S 759 mmHg 47%
    11:00 +30°C° 0 mm 2 m/S 759 mmHg 43%
    12:00 +31°C° 0 mm 2 m/S 759 mmHg 39%
    13:00 +34°C° 0 mm 3 m/S 758 mmHg 35%
    14:00 +33°C° 0 mm 3 m/S 758 mmHg 36%
    15:00 +33°C° 0 mm 3 m/S 757 mmHg 37%
    16:00 +33°C° 0 mm 3 m/S 757 mmHg 39%
    17:00 +30°C° 0 mm 3 m/S 757 mmHg 45%
    18:00 +28°C° 0 mm 3 m/S 757 mmHg 51%
    19:00 +26°C° 0 mm 3 m/S 757 mmHg 57%
    20:00 +26°C° 0 mm 3 m/S 758 mmHg 56%
    21:00 +26°C° 0 mm 3 m/S 758 mmHg 55%
    22:00 +26°C° 0 mm 2 m/S 758 mmHg 54%
    23:00 +26°C° 0 mm 3 m/S 758 mmHg 53%

    übermorgen, 20 Oktober, Sonntag

    Zeit Temperatur Niederschläge Wind Luftdruck Luftfeuchtigkeit
    00:00 +26°C° 0 mm 3 m/S 758 mmHg 53%
    01:00 +25°C° 0 mm 3 m/S 758 mmHg 52%
    02:00 +25°C° 0 mm 3 m/S 758 mmHg 52%
    03:00 +25°C° 0 mm 4 m/S 758 mmHg 52%
    04:00 +25°C° 0 mm 4 m/S 758 mmHg 52%
    05:00 +24°C° 0 mm 3 m/S 758 mmHg 52%
    06:00 +24°C° 0 mm 3 m/S 758 mmHg 52%
    07:00 +24°C° 0 mm 3 m/S 758 mmHg 52%
    08:00 +26°C° 0 mm 3 m/S 758 mmHg 47%
    09:00 +29°C° 0 mm 3 m/S 758 mmHg 42%
    10:00 +31°C° 0 mm 3 m/S 759 mmHg 36%
    11:00 +32°C° 0 mm 2 m/S 758 mmHg 34%
    12:00 +35°C° 0 mm 2 m/S 758 mmHg 31%
    13:00 +36°C° 0 mm 2 m/S 758 mmHg 28%
    14:00 +36°C° 0 mm 2 m/S 758 mmHg 29%
    15:00 +35°C° 0 mm 3 m/S 758 mmHg 29%
    16:00 +35°C° 0 mm 3 m/S 758 mmHg 30%
    17:00 +33°C° 0 mm 3 m/S 758 mmHg 36%
    18:00 +30°C° 0 mm 3 m/S 758 mmHg 42%
    19:00 +28°C° 0 mm 3 m/S 758 mmHg 48%
    20:00 +27°C° 0 mm 3 m/S 759 mmHg 49%
    21:00 +27°C° 0 mm 2 m/S 759 mmHg 49%
    22:00 +26°C° 0 mm 2 m/S 759 mmHg 50%
    23:00 +26°C° 0 mm 2 m/S 759 mmHg 50%

    21 Oktober, Montag

    Zeit Temperatur Niederschläge Wind Luftdruck Luftfeuchtigkeit
    00:00 +26°C° 0 mm 2 m/S 759 mmHg 50%
    01:00 +25°C° 0 mm 2 m/S 759 mmHg 51%
    02:00 +25°C° 0 mm 2 m/S 759 mmHg 51%
    03:00 +25°C° 0 mm 2 m/S 759 mmHg 52%
    04:00 +24°C° 0 mm 3 m/S 759 mmHg 53%
    05:00 +24°C° 0 mm 3 m/S 759 mmHg 57%
    06:00 +24°C° 0 mm 2 m/S 759 mmHg 61%
    07:00 +23°C° 0 mm 2 m/S 759 mmHg 65%
    08:00 +25°C° 0 mm 2 m/S 759 mmHg 59%
    09:00 +27°C° 0 mm 2 m/S 760 mmHg 53%
    10:00 +29°C° 0 mm 2 m/S 760 mmHg 47%
    11:00 +30°C° 0 mm 2 m/S 760 mmHg 42%
    12:00 +31°C° 0 mm 2 m/S 759 mmHg 38%
    13:00 +34°C° 0 mm 2 m/S 759 mmHg 33%
    14:00 +33°C° 0 mm 3 m/S 759 mmHg 36%
    15:00 +31°C° 0 mm 3 m/S 758 mmHg 38%
    16:00 +32°C° 0 mm 4 m/S 758 mmHg 41%
    17:00 +30°C° 0 mm 4 m/S 758 mmHg 44%
    18:00 +29°C° 0 mm 4 m/S 758 mmHg 48%
    19:00 +28°C° 0 mm 4 m/S 758 mmHg 51%
    20:00 +28°C° 0 mm 4 m/S 758 mmHg 50%
    21:00 +27°C° 0 mm 4 m/S 758 mmHg 49%
    22:00 +27°C° 0 mm 5 m/S 758 mmHg 48%
    23:00 +26°C° 0 mm 4 m/S 758 mmHg 49%

    22 Oktober, Dienstag

    Zeit Temperatur Niederschläge Wind Luftdruck Luftfeuchtigkeit
    00:00 +26°C° 0 mm 4 m/S 758 mmHg 50%
    01:00 +25°C° 0 mm 4 m/S 758 mmHg 52%
    02:00 +25°C° 0 mm 4 m/S 757 mmHg 53%
    03:00 +25°C° 0 mm 4 m/S 757 mmHg 54%
    04:00 +23°C° 0 mm 4 m/S 757 mmHg 55%
    05:00 +23°C° 0 mm 4 m/S 757 mmHg 58%
    06:00 +24°C° 0 mm 3 m/S 757 mmHg 61%
    07:00 +22°C° 0 mm 3 m/S 757 mmHg 64%
    08:00 +25°C° 0 mm 3 m/S 757 mmHg 61%
    09:00 +27°C° 0 mm 4 m/S 757 mmHg 58%
    10:00 +29°C° 0 mm 4 m/S 757 mmHg 55%
    11:00 +30°C° 0 mm 4 m/S 757 mmHg 50%
    12:00 +31°C° 0 mm 3 m/S 757 mmHg 46%
    13:00 +34°C° 0 mm 3 m/S 756 mmHg 41%
    14:00 +33°C° 0 mm 3 m/S 756 mmHg 44%
    15:00 +31°C° 0 mm 3 m/S 756 mmHg 48%
    16:00 +32°C° 0 mm 4 m/S 755 mmHg 51%
    17:00 +30°C° 0 mm 4 m/S 755 mmHg 53%
    18:00 +29°C° 0 mm 5 m/S 755 mmHg 55%
    19:00 +28°C° 0 mm 5 m/S 755 mmHg 57%
    20:00 +28°C° 0 mm 5 m/S 755 mmHg 59%
    21:00 +27°C° 0 mm 5 m/S 755 mmHg 61%
    22:00 +27°C° 0 mm 6 m/S 755 mmHg 63%
    23:00 +27°C° 0 mm 6 m/S 755 mmHg 62%

    23 Oktober, Mittwoch

    Zeit Temperatur Niederschläge Wind Luftdruck Luftfeuchtigkeit
    00:00 +27°C° 0 mm 6 m/S 754 mmHg 61%
    01:00 +27°C° 0 mm 6 m/S 754 mmHg 59%
    02:00 +27°C° 0 mm 7 m/S 753 mmHg 57%
    03:00 +27°C° 0 mm 8 m/S 753 mmHg 54%
    04:00 +28°C° 0 mm 9 m/S 752 mmHg 51%
    05:00 +28°C° 0 mm 10 m/S 752 mmHg 49%
    06:00 +29°C° 0 mm 10 m/S 752 mmHg 46%
    07:00 +29°C° 0 mm 11 m/S 751 mmHg 44%
    08:00 +31°C° 0 mm 11 m/S 751 mmHg 43%
    09:00 +31°C° 0 mm 11 m/S 751 mmHg 42%
    10:00 +32°C° 0 mm 11 m/S 752 mmHg 40%
    11:00 +33°C° 0 mm 10 m/S 752 mmHg 38%
    12:00 +33°C° 0 mm 10 m/S 752 mmHg 36%
    13:00 +34°C° 0 mm 9 m/S 752 mmHg 34%
    14:00 +32°C° 0 mm 8 m/S 752 mmHg 43%
    15:00 +28°C° 0 mm 7 m/S 752 mmHg 52%
    16:00 +26°C° 0 mm 6 m/S 753 mmHg 61%
    17:00 +25°C° 0 mm 5 m/S 753 mmHg 66%
    18:00 +22°C° 0 mm 4 m/S 754 mmHg 70%
    19:00 +21°C° 0 mm 3 m/S 755 mmHg 75%
    20:00 +21°C° 0 mm 3 m/S 755 mmHg 74%
    21:00 +21°C° 0 mm 2 m/S 756 mmHg 73%
    22:00 +21°C° 0 mm 2 m/S 757 mmHg 72%
    23:00 +20°C° 0 mm 2 m/S 757 mmHg 71%
    Mehr zeigen